Change the Weather History Date:

Sunday, February 12, 2012

  Actual Average Record
Temperature  
Mean Temperature 21 °F 27 °F  
Max Temperature 31 °F 38 °F 63 °F (1921)
Min Temperature 11 °F 16 °F -30 °F (1905)
Degree Days  
Heating Degree Days 44 38  
Month to date heating degree days 466 467  
Since 1 July heating degree days 4522 4985  
Cooling Degree Days 0 0  
Month to date cooling degree days 0 0  
Year to date cooling degree days 0 0  
Moisture  
Dew Point 15 °F    
Average Humidity 80    
Maximum Humidity 96    
Minimum Humidity 63    
Precipitation  
Precipitation 0.00 in 0.01 in 0.32 in (1897)
Month to date precipitation 0.35 0.12  
Year to date precipitation 1.63 0.48  
Snow  
Snow 0.00 in 0.10 in 5.70 in (1936)
Month to date snowfall 6.9 2.2  
Since 1 July snowfall 35.5 24.5  
Snow Depth 3.00 in    
Sea Level Pressure  
Sea Level Pressure 30.07 in    
Wind  
Wind Speed 1 mph (NNW)    
Max Wind Speed 6 mph    
Max Gust Speed 7 mph    
Visibility 8 miles    
Events      
T = Trace of Precipitation, MM = Missing Value Source: NWS Daily Summary

Daily Weather History Graph

Daily Weather History Graph

Search for Another Location

Airport or City:

Trip Planner

Search our weather history database for the weather conditions in past years. The results will help you decide how hot, cold, wet, or windy it might be!

Date:

Astronomy

Feb. 12, 2012 Rise Set
Actual Time 7:37 AM MST 5:47 PM MST
Civil Twilight 7:05 AM MST 6:19 PM MST
Nautical Twilight 6:30 AM MST 6:54 PM MST
Astronomical Twilight 5:55 AM MST 7:29 PM MST
Moon No Moon Rise 9:33 AM MST (2/12)
Length of Visible Light 11h 13m
Length of Day
10h 10m
Waning Gibbous, 71% of the Moon is Illuminated
Feb 12
Waning Gibbous
Feb 14
Last Quarter
Feb 21
New
Feb 29
First Quarter
Mar 8
Full

Hourly Weather History & Observations

Time (MST) Temp. Windchill Dew Point Humidity Pressure Visibility Wind Dir Wind Speed Gust Speed Precip Events Conditions
12:53 AM 12.9 °F - 10.9 °F 92% 30.22 in 7.0 mi Calm Calm - N/A   Overcast
1:53 AM 14.0 °F - 12.0 °F 92% 30.21 in 7.0 mi Calm Calm - N/A   Overcast
2:53 AM 15.1 °F - 12.0 °F 88% 30.19 in 8.0 mi Calm Calm - N/A   Overcast
3:53 AM 12.9 °F 6.9 °F 10.9 °F 92% 30.19 in 7.0 mi NNW 3.5 mph - N/A   Overcast
4:40 AM 14.0 °F - 10.4 °F 86% 29.97 in 7.0 mi Calm Calm - N/A   Overcast
4:53 AM 14.0 °F - 10.9 °F 88% 30.18 in 7.0 mi Calm Calm - N/A   Overcast
5:53 AM 14.0 °F - 12.0 °F 92% 30.17 in 7.0 mi Calm Calm - N/A   Overcast
6:53 AM 14.0 °F - 12.0 °F 92% 30.16 in 7.0 mi Calm Calm - N/A   Mostly Cloudy
7:53 AM 14.0 °F - 12.0 °F 92% 30.16 in 5.0 mi Calm Calm - N/A   Overcast
8:53 AM 16.0 °F 10.4 °F 12.0 °F 84% 30.15 in 9.0 mi North 3.5 mph - N/A   Mostly Cloudy
9:53 AM 18.0 °F - 12.9 °F 81% 30.15 in 7.0 mi Calm Calm - N/A   Mostly Cloudy
10:22 AM 19.4 °F - 12.2 °F 74% 29.91 in 8.0 mi Calm Calm - N/A   Mostly Cloudy
10:53 AM 21.0 °F 16.2 °F 14.0 °F 74% 30.13 in 8.0 mi NNW 3.5 mph - N/A   Mostly Cloudy
11:53 AM 23.0 °F - 15.1 °F 72% 30.10 in 9.0 mi Calm Calm - N/A   Mostly Cloudy
12:53 PM 24.1 °F 19.7 °F 16.0 °F 71% 30.06 in 9.0 mi North 3.5 mph - N/A   Overcast
1:53 PM 26.1 °F - 17.1 °F 69% 30.04 in 8.0 mi Calm Calm - N/A   Mostly Cloudy
2:53 PM 28.0 °F - 17.1 °F 63% 30.01 in 8.0 mi Calm Calm - N/A   Mostly Cloudy
3:53 PM 28.9 °F - 18.0 °F 64% 30.01 in 9.0 mi Calm Calm - N/A   Mostly Cloudy
4:53 PM 28.0 °F - 19.0 °F 69% 29.99 in 8.0 mi Calm Calm - N/A   Mostly Cloudy
5:53 PM 25.0 °F - 19.0 °F 78% 29.99 in 7.0 mi Calm Calm - N/A   Overcast
6:53 PM 23.0 °F - 18.0 °F 81% 29.99 in 8.0 mi Calm Calm - N/A   Overcast
7:53 PM 26.1 °F - 19.9 °F 78% 29.98 in 7.0 mi Calm Calm - N/A   Overcast
8:53 PM 25.0 °F - 19.9 °F 81% 29.97 in 7.0 mi Calm Calm - N/A   Overcast
9:53 PM 25.0 °F - 19.9 °F 81% 29.96 in 7.0 mi Calm Calm - N/A   Overcast
10:53 PM 23.0 °F - 19.0 °F 85% 29.96 in 7.0 mi Calm Calm - N/A   Overcast
11:53 PM 23.0 °F - 19.9 °F 88% 29.96 in 7.0 mi Calm Calm - N/A   Overcast